Location: *
(52.2090°N, 4.1550°W)
Time: 23:53:46
(UTC+00:00)

Cosmos 1242 Rocket - Pass Details

Date: 19 July 2019
Orbit: 449 x 489 km, 81.2° (Epoch: 23 August)

Event Time Altitude Azimuth Distance (km) Brightness Sun altitude
Rises 21:33:40 0° 211° (SSW) 2,545 6.0 -8.2°
Reaches altitude 10° 21:35:51 10° 220° (SW) 1,674 5.2 -8.5°
Maximum altitude 21:39:17 37° 289° (WNW) 776 4.2 -8.8°
Drops below altitude 10° 21:42:47 10° 359° (N) 1,694 6.2 -9.1°
Sets 21:45:01 0° 8° (N) 2,581 7.0 -9.3°
